[[{"header":{"parameterUnit":"m.s-1","parameterCategory":1,"la1":30.2991,"la2":30.254,"lo1":-89.0895,"lo2":-89.0444,"dy":0.0017,"dx":0.0017,"nx":28,"ny":28,"refTime":"2024-11-29T09:00:00:Z","depth":0,"parameterNumber":2,"parameterNumberName":"U-component_of_WINDS"},"data":[0,0,0,0,0,0,0,0,0,0,0,0,0,0,0,0,0,0,0,0,0,0,0,0,0,0,0,0,0,0,0,0,0,0,0,0,0,0,0,0,0,0,0,0,0,0,0,0,0,0,0,0,0,0,0,0,0,0,-0.8945,-0.8946,0,-0.8964,-0.8964,-0.8964,-0.8934,-0.8933,-0.8932,-0.8931,-0.8951,-0.8952,-0.8954,0,0,0,0,0,0,0,0,0,0,0,0,0,-0.8883,-0.8885,-0.8945,-0.8946,-0.8946,-0.8964,-0.8964,-0.8964,-0.8934,-0.8933,-0.8932,-0.893,-0.895,-0.8952,-0.8954,0,0,0,0,0,0,0,0,0,0,0,0,0,-0.8907,-0.8885,-0.8945,-0.8933,-0.8932,-0.8964,-0.8964,-0.8964,-0.8934,-0.8933,-0.8931,-0.893,-0.895,-0.8952,-0.8954,-0.8999,0,0,-0.8961,-0.8962,0,0,0,0,0,0,0,0,-0.8906,-0.8909,-0.8934,-0.8934,-0.8933,-0.8945,-0.895,-0.8976,-0.8935,-0.8934,-0.8931,-0.8929,-0.895,-0.8952,-0.8959,-0.9,-0.9001,-0.8961,-0.8962,-0.8963,-0.8964,0,0,0,0,0,0,0,-0.8904,-0.8908,-0.8953,-0.8935,-0.8934,-0.8926,-0.8928,-0.8954,-0.895,-0.8933,-0.8931,-0.8934,-0.8949,-0.8957,-0.8959,-0.9001,-0.8961,-0.8963,-0.8964,-0.8965,-0.908,-0.9081,0,0,0,0,0,0,-0.8904,-0.8907,-0.8952,-0.8953,-0.8915,-0.8929,-0.893,-0.8943,-0.895,-0.895,-0.8935,-0.8932,-0.8954,-0.8957,-0.896,-0.9013,-0.8963,-0.8966,-0.8967,-0.9078,-0.908,-0.9082,0,0,0,0,0,0,-0.8903,-0.8908,-0.8951,-0.893,-0.8935,-0.8931,-0.8945,-0.8944,-0.8952,-0.8951,-0.895,-0.8944,-0.8953,-0.8957,-0.899,-0.9014,-0.8967,-0.8969,-0.9076,-0.9079,-0.9081,-0.9121,0,0,0,0,0,0,-0.8901,-0.8908,-0.8925,-0.893,-0.8936,-0.8981,-0.8947,-0.8945,-0.8955,-0.8952,-0.8959,-0.8959,-0.8952,-0.8986,-0.8992,-0.9016,-0.897,-0.9074,-0.9077,-0.908,-0.9117,-0.9124,-0.913,0,0,0,0,0,-0.8899,-0.8936,-0.8926,-0.8932,-0.8957,-0.8982,-0.8985,-0.8977,-0.8958,-0.8975,-0.8974,-0.8959,-0.901,-0.899,-0.8996,-0.9021,-0.9072,-0.9076,-0.908,-0.9114,-0.9123,-0.913,0,0,0,0,0,0,-0.8935,-0.8937,-0.8926,-0.8966,-0.8974,-0.8977,-0.8999,-0.8986,-0.9,-0.8996,-0.8985,-0.8987,-0.9022,-0.9024,-0.9002,-0.9065,-0.9038,-0.9043,-0.9062,-0.907,-0.9077,-0.9076,-0.8972,0,0,0,0,0,-0.8947,-0.8967,-0.8967,-0.9002,-0.9007,-0.9002,-0.9013,-0.9005,-0.9013,-0.9017,-0.9019,-0.9028,-0.9046,-0.9058,-0.9074,-0.9117,-0.9118,-0.9137,-0.9144,-0.9149,-0.9154,-0.9176,-0.9185,-0.9094,-0.9094,-0.9094,0,0,-0.8973,-0.8976,-0.899,-0.901,-0.9015,-0.9036,-0.9006,-0.9029,-0.9045,-0.902,-0.9052,-0.9053,-0.9062,-0.91,-0.9117,-0.9103,-0.9179,-0.9154,-0.9158,-0.916,-0.9181,-0.919,-0.9197,-0.9097,-0.9096,-0.9096,0,0,-0.9031,-0.9036,-0.9065,-0.9071,-0.908,-0.9076,-0.9083,-0.9088,-0.9088,-0.9119,-0.9101,-0.9119,-0.915,-0.9157,-0.9165,-0.9225,-0.9211,-0.923,-0.9265,-0.9287,-0.9294,-0.93,-0.9322,-0.933,-0.9235,-0.9235,-0.9235,0,-0.9063,-0.9094,-0.9082,-0.9107,-0.9116,-0.9094,-0.9124,-0.913,-0.9144,-0.9151,-0.9135,-0.9174,-0.9178,-0.9217,-0.9232,-0.9239,-0.9246,-0.923,-0.9294,-0.93,-0.9306,-0.9326,-0.9334,-0.9237,-0.9237,-0.9237,-0.9237,0,-0.9132,-0.9153,-0.9176,-0.919,-0.9201,-0.9228,-0.9221,-0.9234,-0.9225,-0.9222,-0.9254,-0.9258,-0.9275,-0.9283,-0.9275,-0.9321,-0.9313,-0.9296,-0.9269,-0.9317,-0.9336,-0.9344,-0.9241,-0.924,-0.9239,-0.9239,0,0,-0.9215,-0.922,-0.9229,-0.9235,-0.9242,-0.9258,-0.9284,-0.93,-0.9312,-0.9321,-0.9343,-0.9369,-0.9353,-0.9362,-0.9354,-0.9373,-0.942,-0.9353,-0.9353,-0.9366,-0.9471,-0.9485,-0.9494,-0.941,-0.9411,-0.9413,-0.9471,0,-0.9273,-0.9318,-0.9307,-0.9351,-0.9371,-0.935,-0.9372,-0.9379,-0.9378,-0.9394,-0.9392,-0.9411,-0.9388,-0.9393,-0.9411,-0.941,-0.9441,-0.9406,-0.943,-0.9431,-0.943,-0.9504,-0.9518,-0.9573,-0.9478,-0.9479,-0.948,0,-0.9347,-0.9359,-0.9405,-0.9409,-0.9417,-0.9437,-0.9451,-0.9466,-0.9473,-0.9471,-0.948,-0.9468,-0.9493,-0.9465,-0.95,-0.9476,-0.9485,-0.9486,-0.9488,-0.9491,-0.9459,-0.9509,-0.959,-0.9598,-0.9492,-0.9491,-0.949,0,-0.9404,-0.9431,-0.9462,-0.9468,-0.9472,-0.9487,-0.949,-0.9495,-0.9505,-0.9517,-0.9523,-0.9538,-0.9546,-0.9558,-0.9549,-0.953,-0.9586,-0.9557,-0.9584,-0.9585,-0.9598,-0.9598,-0.9682,-0.9603,-0.9603,-0.9602,-0.9602,0,-0.9471,-0.95,-0.9488,-0.9507,-0.9539,-0.9526,-0.9558,-0.9558,-0.9563,-0.9582,-0.9564,-0.9582,-0.9569,-0.9586,-0.958,-0.961,-0.9613,-0.9612,-0.961,-0.9614,-0.9615,-0.9621,-0.9617,-0.9605,-0.9604,-0.9604,-0.9603,0,-0.954,-0.9533,-0.9565,-0.9566,-0.9567,-0.9591,-0.9592,-0.9609,-0.9606,-0.963,-0.9635,-0.9629,-0.9648,-0.964,-0.9661,-0.9656,-0.9694,-0.9687,-0.9692,-0.9691,-0.9719,-0.9717,-0.9811,-0.9823,-0.9735,-0.9736,-0.9737,0,-0.9583,-0.9605,-0.9608,-0.9619,-0.9623,-0.9641,-0.9651,-0.9639,-0.9651,-0.966,-0.9676,-0.9693,-0.9706,-0.9737,-0.9735,-0.975,-0.9744,-0.9776,-0.9746,-0.9749,-0.9745,-0.9744,-0.9746,-0.9782,-0.9783,-0.9784,-0.9785,0,-0.9661,-0.9657,-0.9672,-0.9685,-0.9698,-0.9708,-0.9717,-0.9727,-0.9715,-0.9728,-0.9747,-0.9757,-0.9777,-0.9795,-0.9808,-0.981,-0.9796,-0.9794,-0.9801,-0.9806,-0.9808,-0.9808,-0.9709,-0.9792,-0.9791,-0.9791,-0.979,-0.979,-0.972,-0.9738,-0.9743,-0.976,-0.9765,-0.9773,-0.979,-0.9788,-0.9803,-0.9819,-0.981,-0.9832,-0.9838,-0.9854,-0.9858,-0.9875,-0.9862,-0.9873,-0.9876,-0.9879,-0.9883,-0.9805,-0.9877,-0.9877,-0.9877,-0.9877,-0.9876,0,-0.9797,-0.9799,-0.9815,-0.9827,-0.9841,-0.9825,-0.9833,-0.9846,-0.9865,-0.9871,-0.9884,-0.9906,-0.9922,-0.9921,-0.9935,-0.9949,-0.9943,-0.9954,-0.9953,-0.9954,-0.9893,-0.9885,-0.9958,-0.9958,-0.9958,-0.9958,-0.9958,-0.9958,-0.9839,-0.9869,-0.9865,-0.9897,-0.9899,-0.992,-0.9926,-0.9933,-0.9938,-0.9963,-0.9976,-0.9975,-0.9978,-0.9993,-1.0007,-1.0006,-1.0013,-1.0026,-1.0023,-0.9966,-0.9958,-0.995,-0.9943,-1.0027,-1.0027,-1.0082,-1.0083,-1.0083]},{"header":{"parameterUnit":"m.s-1","parameterCategory":1,"la1":30.2991,"la2":30.254,"lo1":-89.0895,"lo2":-89.0444,"dy":0.0017,"dx":0.0017,"nx":28,"ny":28,"refTime":"2024-11-29T09:00:00:Z","depth":0,"parameterNumber":3,"parameterNumberName":"V-component_of_WINDS"},"data":[0,0,0,0,0,0,0,0,0,0,0,0,0,0,0,0,0,0,0,0,0,0,0,0,0,0,0,0,0,0,0,0,0,0,0,0,0,0,0,0,0,0,0,0,0,0,0,0,0,0,0,0,0,0,0,0,0,0,-7.6298,-7.6299,0,-7.6362,-7.6363,-7.6364,-7.628,-7.6277,-7.6274,-7.6271,-7.6331,-7.6335,-7.634,0,0,0,0,0,0,0,0,0,0,0,0,0,-7.6097,-7.6101,-7.6298,-7.6299,-7.63,-7.6362,-7.6363,-7.6364,-7.6281,-7.6277,-7.6274,-7.627,-7.633,-7.6335,-7.634,0,0,0,0,0,0,0,0,0,0,0,0,0,-7.6175,-7.6102,-7.6298,-7.6266,-7.6264,-7.6362,-7.6363,-7.6364,-7.6282,-7.6277,-7.6273,-7.6268,-7.6328,-7.6334,-7.6341,-7.6472,0,0,-7.6361,-7.6364,0,0,0,0,0,0,0,0,-7.6171,-7.6182,-7.627,-7.6268,-7.6266,-7.6309,-7.6314,-7.64,-7.6283,-7.6275,-7.6271,-7.6266,-7.6327,-7.6333,-7.6355,-7.6475,-7.6477,-7.6362,-7.6366,-7.6368,-7.637,0,0,0,0,0,0,0,-7.6165,-7.6179,-7.6323,-7.6271,-7.6269,-7.6246,-7.6252,-7.633,-7.6325,-7.6275,-7.6269,-7.6278,-7.6325,-7.6349,-7.6356,-7.6478,-7.6361,-7.6367,-7.6371,-7.6374,-7.6708,-7.6713,0,0,0,0,0,0,-7.6164,-7.6175,-7.6321,-7.6325,-7.6206,-7.6254,-7.626,-7.63,-7.6324,-7.6324,-7.6282,-7.6274,-7.634,-7.6348,-7.6358,-7.6513,-7.6368,-7.6375,-7.6378,-7.6703,-7.6709,-7.6715,0,0,0,0,0,0,-7.616,-7.6178,-7.6319,-7.6249,-7.6265,-7.6262,-7.6306,-7.6303,-7.6327,-7.633,-7.6328,-7.6308,-7.6337,-7.6348,-7.6445,-7.6514,-7.6378,-7.6384,-7.6697,-7.6705,-7.6712,-7.6824,0,0,0,0,0,0,-7.6155,-7.6177,-7.6229,-7.6251,-7.6269,-7.6407,-7.6311,-7.6308,-7.6339,-7.633,-7.6353,-7.6353,-7.6334,-7.6435,-7.6451,-7.652,-7.6389,-7.6691,-7.6701,-7.671,-7.6814,-7.6834,-7.6852,0,0,0,0,0,-7.6148,-7.6256,-7.6232,-7.625,-7.6333,-7.6411,-7.6421,-7.6399,-7.6345,-7.6396,-7.6397,-7.6352,-7.6504,-7.6446,-7.6463,-7.6535,-7.6687,-7.6698,-7.6709,-7.6806,-7.683,-7.6851,0,0,0,0,0,0,-7.624,-7.6258,-7.6231,-7.635,-7.638,-7.6397,-7.646,-7.6426,-7.647,-7.6458,-7.6428,-7.6434,-7.6536,-7.6545,-7.648,-7.6663,-7.6586,-7.6601,-7.6654,-7.6677,-7.6696,-7.6691,-7.6394,0,0,0,0,0,-7.6275,-7.6338,-7.635,-7.6453,-7.647,-7.6463,-7.6495,-7.6476,-7.6505,-7.6516,-7.6525,-7.6552,-7.6606,-7.6642,-7.6692,-7.6815,-7.6818,-7.6873,-7.6892,-7.6907,-7.692,-7.6986,-7.701,-7.6751,-7.6751,-7.6751,0,0,-7.6345,-7.6363,-7.6405,-7.6472,-7.6493,-7.6558,-7.6474,-7.6545,-7.6592,-7.6526,-7.6618,-7.6626,-7.6654,-7.6765,-7.6814,-7.6775,-7.6993,-7.6921,-7.6934,-7.6938,-7.7,-7.7024,-7.7046,-7.6758,-7.6757,-7.6756,0,0,-7.6508,-7.6529,-7.6617,-7.6641,-7.6674,-7.6668,-7.669,-7.6712,-7.6715,-7.6807,-7.6759,-7.6814,-7.6907,-7.693,-7.6953,-7.7126,-7.7085,-7.7142,-7.724,-7.7304,-7.7325,-7.7343,-7.7403,-7.7426,-7.7156,-7.7156,-7.7156,0,-7.6591,-7.6689,-7.6666,-7.6743,-7.6773,-7.6719,-7.6807,-7.683,-7.6877,-7.6898,-7.6855,-7.6972,-7.6987,-7.7102,-7.7144,-7.7165,-7.7188,-7.7139,-7.7324,-7.7342,-7.7358,-7.7416,-7.7439,-7.7163,-7.7162,-7.7161,-7.7161,0,-7.679,-7.6858,-7.6926,-7.6975,-7.7013,-7.7095,-7.7083,-7.7124,-7.7102,-7.71,-7.7194,-7.7211,-7.7263,-7.7289,-7.7267,-7.7401,-7.7376,-7.7329,-7.7251,-7.739,-7.7444,-7.7466,-7.7172,-7.717,-7.7168,-7.7166,0,0,-7.7011,-7.7049,-7.7074,-7.7096,-7.7129,-7.718,-7.7259,-7.7312,-7.7348,-7.7382,-7.7446,-7.7527,-7.7484,-7.7511,-7.7491,-7.7547,-7.7682,-7.7493,-7.7493,-7.7527,-7.783,-7.7865,-7.7891,-7.7656,-7.766,-7.7663,-7.7828,0,-7.7174,-7.7313,-7.7295,-7.7428,-7.749,-7.744,-7.7508,-7.7535,-7.7536,-7.7587,-7.7586,-7.7645,-7.7584,-7.76,-7.7653,-7.7655,-7.7742,-7.7642,-7.7714,-7.7717,-7.7708,-7.7919,-7.7957,-7.8111,-7.7848,-7.7852,-7.7854,0,-7.7382,-7.7427,-7.7567,-7.7591,-7.7616,-7.7678,-7.7726,-7.7776,-7.7805,-7.7801,-7.7832,-7.7802,-7.7879,-7.7801,-7.7905,-7.7838,-7.7866,-7.7871,-7.7876,-7.7881,-7.7794,-7.793,-7.8159,-7.8183,-7.7887,-7.7885,-7.7882,0,-7.753,-7.7624,-7.772,-7.774,-7.7771,-7.7816,-7.783,-7.7855,-7.7888,-7.7928,-7.7949,-7.7998,-7.8024,-7.8062,-7.8045,-7.7989,-7.8153,-7.8072,-7.815,-7.8151,-7.8186,-7.8184,-7.8424,-7.8206,-7.8205,-7.8205,-7.8205,0,-7.7713,-7.78,-7.7787,-7.7846,-7.7942,-7.7919,-7.8014,-7.8022,-7.8044,-7.8102,-7.806,-7.8115,-7.809,-7.8143,-7.813,-7.8218,-7.823,-7.8228,-7.8224,-7.8232,-7.8232,-7.8249,-7.8238,-7.8211,-7.821,-7.8209,-7.8208,0,-7.7893,-7.7888,-7.7989,-7.8011,-7.8018,-7.8088,-7.8105,-7.8159,-7.8157,-7.8231,-7.8247,-7.8243,-7.8303,-7.829,-7.8355,-7.8346,-7.8457,-7.844,-7.8449,-7.8444,-7.8523,-7.8516,-7.8781,-7.8814,-7.8576,-7.8578,-7.858,0,-7.8011,-7.8077,-7.8106,-7.8144,-7.8162,-7.8222,-7.8257,-7.8237,-7.8274,-7.8312,-7.8361,-7.8418,-7.8462,-7.856,-7.8561,-7.8611,-7.8593,-7.8683,-7.86,-7.8607,-7.8594,-7.859,-7.8596,-7.8699,-7.8702,-7.8704,-7.8706,0,-7.8219,-7.8214,-7.8266,-7.8319,-7.8362,-7.8401,-7.8436,-7.8468,-7.8451,-7.8494,-7.8556,-7.8591,-7.8658,-7.8715,-7.8761,-7.8772,-7.8736,-7.8732,-7.8753,-7.8762,-7.8764,-7.8763,-7.8493,-7.8726,-7.8724,-7.8722,-7.8721,-7.8721,-7.8371,-7.8428,-7.8458,-7.8518,-7.8543,-7.8577,-7.8629,-7.8635,-7.8687,-7.8742,-7.8726,-7.8797,-7.8822,-7.8881,-7.8899,-7.8952,-7.8918,-7.8948,-7.8955,-7.8963,-7.8972,-7.8756,-7.896,-7.8959,-7.8959,-7.8958,-7.8958,0,-7.8577,-7.8594,-7.865,-7.8702,-7.8749,-7.8713,-7.875,-7.8791,-7.8854,-7.8883,-7.8928,-7.8999,-7.9053,-7.906,-7.9111,-7.9152,-7.9137,-7.9166,-7.9162,-7.9166,-7.9,-7.8977,-7.9178,-7.9178,-7.9178,-7.9178,-7.9178,-7.9178,-7.869,-7.8784,-7.8782,-7.8888,-7.8903,-7.8974,-7.8998,-7.9029,-7.9052,-7.9134,-7.918,-7.9185,-7.9204,-7.9256,-7.9304,-7.9304,-7.9324,-7.936,-7.9354,-7.9199,-7.9177,-7.9156,-7.9135,-7.9365,-7.9365,-7.9515,-7.9517,-7.9518]}]]